QPF
0.10 0.06 0.03 0.02 0.04 0.04 0.05 0.06 0.07 0.06 0.07 0.07 0.07 0.08 0.08 0.07 0.06 0.04 0.04 0.03 0.03 0.03 0.03 0.04 0.04 0.04 0.05 0.04 0.04 0.05 0.05 0.05 0.05 0.05 0.04 0.04 0.04 0.04 0.04 0.05 0.05 0.05 0.05
0.05 0.04 0.03 0.04 0.05 0.05 0.06 0.07 0.07 0.07 0.07 0.08 0.10 0.11 0.10 0.09 0.07 0.05 0.03 0.03 0.03 0.04 0.03 0.05 0.04 0.05 0.05 0.05 0.05 0.06 0.06 0.06 0.06 0.06 0.06 0.05 0.04 0.04 0.04 0.04 0.04 0.05 0.05
0.02 0.03 0.05 0.06 0.06 0.05 0.04 0.04 0.05 0.06 0.08 0.09 0.10 0.10 0.11 0.09 0.07 0.05 0.03 0.03 0.03 0.03 0.04 0.05 0.05 0.05 0.04 0.04 0.04 0.06 0.06 0.07 0.08 0.08 0.09 0.08 0.07 0.06 0.05 0.04 0.04 0.05 0.06
0.02 0.03 0.05 0.06 0.07 0.06 0.05 0.05 0.03 0.05 0.06 0.08 0.08 0.10 0.09 0.06 0.05 0.05 0.05 0.04 0.03 0.04 0.04 0.04 0.05 0.05 0.04 0.04 0.03 0.04 0.04 0.06 0.06 0.08 0.09 0.10 0.10 0.10 0.07 0.06 0.05 0.05 0.05
0.02 0.02 0.04 0.06 0.06 0.05 0.06 0.05 0.04 0.05 0.08 0.11 0.10 0.11 0.10 0.10 0.08 0.08 0.08 0.06 0.05 0.04 0.04 0.05 0.05 0.05 0.04 0.04 0.04 0.04 0.04 0.05 0.05 0.06 0.07 0.08 0.10 0.10 0.09 0.07 0.06 0.05 0.04
0.04 0.05 0.05 0.05 0.04 0.04 0.06 0.06 0.06 0.07 0.08 0.10 0.11 0.10 0.10 0.12 0.14 0.15 0.15 0.12 0.08 0.06 0.05 0.05 0.05 0.04 0.04 0.03 0.04 0.04 0.05 0.05 0.05 0.06 0.07 0.08 0.08 0.08 0.09 0.09 0.07 0.06 0.05
0.06 0.06 0.05 0.05 0.05 0.05 0.06 0.08 0.09 0.09 0.08 0.09 0.10 0.11 0.12 0.13 0.16 0.18 0.17 0.15 0.10 0.07 0.05 0.04 0.04 0.04 0.04 0.04 0.04 0.04 0.04 0.04 0.05 0.05 0.05 0.06 0.07 0.07 0.09 0.10 0.09 0.07 0.06
0.03 0.04 0.04 0.03 0.04 0.06 0.09 0.09 0.09 0.10 0.09 0.09 0.10 0.12 0.14 0.16 0.16 0.15 0.13 0.10 0.09 0.08 0.06 0.04 0.04 0.03 0.03 0.04 0.05 0.05 0.05 0.04 0.04 0.03 0.04 0.05 0.06 0.06 0.07 0.09 0.10 0.09 0.08
0.03 0.05 0.06 0.04 0.04 0.06 0.08 0.10 0.09 0.09 0.08 0.07 0.08 0.09 0.09 0.09 0.08 0.08 0.08 0.07 0.06 0.04 0.04 0.03 0.03 0.03 0.04 0.06 0.07 0.06 0.05 0.04 0.04 0.03 0.04 0.05 0.05 0.06 0.06 0.08 0.09 0.10 0.09
0.06 0.06 0.06 0.05 0.05 0.05 0.06 0.08 0.09 0.09 0.08 0.06 0.06 0.06 0.05 0.05 0.05 0.05 0.05 0.05 0.05 0.04 0.04 0.04 0.04 0.04 0.05 0.06 0.06 0.05 0.04 0.04 0.04 0.03 0.04 0.05 0.06 0.06 0.07 0.07 0.07 0.08 0.09
0.05 0.05 0.06 0.04 0.03 0.03 0.04 0.05 0.07 0.07 0.08 0.07 0.06 0.05 0.05 0.04 0.03 0.03 0.04 0.04 0.04 0.03 0.03 0.03 0.03 0.03 0.04 0.04 0.05 0.05 0.05 0.05 0.05 0.05 0.06 0.06 0.07 0.07 0.07 0.08 0.08 0.08 0.08
0.10 0.05 0.05 0.04 0.03 0.02 0.03 0.05 0.06 0.07 0.07 0.07 0.07 0.06 0.04 0.04 0.03 0.03 0.03 0.03 0.03 0.03 0.04 0.04 0.04 0.03 0.03 0.05 0.06 0.06 0.06 0.07 0.07 0.08 0.09 0.09 0.08 0.06 0.07 0.09 0.08 0.07 0.07
0.08 0.06 0.06 0.05 0.03 0.02 0.02 0.04 0.04 0.05 0.06 0.06 0.06 0.05 0.04 0.03 0.03 0.03 0.02 0.02 0.03 0.03 0.03 0.03 0.03 0.03 0.03 0.04 0.05 0.06 0.08 0.09 0.07 0.08 0.08 0.09 0.08 0.06 0.06 0.06 0.04 0.04 0.05
0.05 0.05 0.05 0.05 0.04 0.03 0.02 0.03 0.03 0.03 0.04 0.05 0.05 0.05 0.05 0.03 0.03 0.03 0.03 0.02 0.02 0.02 0.02 0.02 0.02 0.02 0.02 0.03 0.03 0.03 0.05 0.05 0.05 0.07 0.06 0.05 0.04 0.03 0.04 0.03 0.03 0.03 0.04
0.04 0.04 0.04 0.05 0.07 0.05 0.04 0.04 0.03 0.03 0.04 0.04 0.05 0.04 0.04 0.03 0.03 0.03 0.03 0.02 0.02 0.02 0.02 0.02 0.02 0.02 0.02 0.02 0.03 0.03 0.03 0.03 0.03 0.04 0.04 0.02 0.01 0.01 0.01 0.02 0.03 0.03 0.03
0.05 0.04 0.04 0.05 0.06 0.06 0.06 0.04 0.03 0.03 0.03 0.03 0.03 0.04 0.04 0.03 0.03 0.02 0.02 0.01 0.01 0.02 0.02 0.02 0.02 0.01 0.01 0.02 0.02 0.03 0.03 0.03 0.03 0.03 0.02 0.01 0.01 0.00 0.01 0.01 0.02 0.02 0.03
0.05 0.05 0.05 0.07 0.07 0.07 0.06 0.05 0.04 0.04 0.03 0.03 0.03 0.04 0.03 0.03 0.02 0.02 0.02 0.02 0.02 0.02 0.02 0.02 0.01 0.01 0.02 0.02 0.02 0.02 0.02 0.03 0.03 0.04 0.04 0.02 0.01 0.01 0.02 0.02 0.03 0.03 0.03
0.04 0.05 0.06 0.09 0.08 0.07 0.06 0.05 0.04 0.04 0.03 0.03 0.04 0.04 0.02 0.02 0.01 0.02 0.02 0.02 0.02 0.02 0.02 0.03 0.03 0.02 0.01 0.01 0.01 0.01 0.02 0.02 0.02 0.03 0.04 0.03 0.02 0.01 0.02 0.03 0.04 0.04 0.04
0.05 0.06 0.06 0.07 0.07 0.06 0.05 0.05 0.05 0.05 0.04 0.04 0.03 0.03 0.02 0.01 0.01 0.01 0.02 0.02 0.02 0.02 0.03 0.04 0.04 0.03 0.02 0.02 0.01 0.01 0.02 0.02 0.02 0.02 0.02 0.02 0.02 0.01 0.01 0.03 0.05 0.05 0.05
0.08 0.07 0.06 0.05 0.05 0.05 0.05 0.06 0.06 0.04 0.03 0.02 0.02 0.02 0.02 0.02 0.01 0.01 0.01 0.01 0.02 0.02 0.03 0.03 0.03 0.03 0.03 0.03 0.03 0.02 0.03 0.03 0.03 0.02 0.02 0.01 0.01 0.01 0.01 0.02 0.03 0.04 0.04
0.07 0.06 0.06 0.05 0.04 0.04 0.05 0.05 0.04 0.04 0.03 0.02 0.02 0.02 0.02 0.02 0.02 0.02 0.01 0.01 0.02 0.02 0.02 0.02 0.02 0.02 0.02 0.02 0.02 0.02 0.02 0.02 0.03 0.03 0.03 0.02 0.01 0.00 0.00 0.01 0.01 0.01 0.02
0.05 0.06 0.06 0.06 0.06 0.06 0.05 0.04 0.04 0.04 0.03 0.02 0.02 0.03 0.03 0.02 0.01 0.01 0.02 0.02 0.03 0.03 0.02 0.01 0.01 0.01 0.01 0.01 0.01 0.01 0.01 0.01 0.01 0.01 0.01 0.01 0.00 0.00 0.00 0.00 0.00 0.00 0.01
0.05 0.06 0.05 0.05 0.04 0.06 0.05 0.04 0.04 0.04 0.04 0.04 0.04 0.04 0.04 0.02 0.01 0.02 0.02 0.03 0.03 0.03 0.02 0.01 0.01 0.01 0.01 0.01 0.01 0.01 0.01 0.01 0.00 0.00 0.00 0.00 0.00 0.00 0.00 0.00 0.01 0.01 0.01
0.04 0.05 0.04 0.03 0.03 0.04 0.04 0.03 0.03 0.04 0.04 0.04 0.04 0.03 0.02 0.01 0.01 0.02 0.02 0.02 0.02 0.02 0.01 0.01 0.01 0.01 0.01 0.01 0.01 0.01 0.01 0.01 0.01 0.01 0.01 0.01 0.01 0.01 0.01 0.01 0.01 0.01 0.01
0.03 0.03 0.03 0.03 0.03 0.03 0.02 0.03 0.03 0.03 0.04 0.06 0.05 0.03 0.02 0.02 0.02 0.02 0.02 0.02 0.02 0.02 0.01 0.01 0.01 0.01 0.00 0.00 0.00 0.00 0.00 0.01 0.01 0.01 0.01 0.01 0.02 0.02 0.03 0.03 0.03 0.03 0.03
0.03 0.03 0.03 0.02 0.01 0.02 0.03 0.03 0.03 0.03 0.04 0.06 0.05 0.03 0.02 0.03 0.02 0.02 0.01 0.01 0.01 0.01 0.01 0.01 0.01 0.00 0.00 0.00 0.00 0.00 0.00 0.00 0.01 0.01 0.01 0.01 0.02 0.02 0.03 0.03 0.03 0.03 0.03
MSLP
1006.37 1006.91 1007.35 1007.70 1007.95 1008.15 1008.33 1008.52 1008.76 1009.04 1009.36 1009.67 1009.97 1010.22 1010.41 1010.54 1010.64 1010.73 1010.85 1011.02 1011.26 1011.57 1011.92 1012.31 1012.68 1013.03 1013.32 1013.57 1013.76 1013.92 1014.07 1014.21 1014.35 1014.50 1014.64 1014.76 1014.85 1014.91 1014.93 1014.94 1014.96 1015.01 1015.11
1006.89 1007.54 1008.06 1008.41 1008.62 1008.73 1008.80 1008.89 1009.03 1009.25 1009.52 1009.83 1010.11 1010.35 1010.51 1010.60 1010.62 1010.63 1010.65 1010.73 1010.89 1011.14 1011.46 1011.83 1012.20 1012.55 1012.85 1013.10 1013.30 1013.46 1013.60 1013.76 1013.93 1014.11 1014.30 1014.49 1014.65 1014.77 1014.85 1014.90 1014.94 1015.00 1015.11
1007.64 1008.39 1008.95 1009.30 1009.44 1009.44 1009.39 1009.35 1009.38 1009.51 1009.72 1009.98 1010.24 1010.45 1010.58 1010.61 1010.57 1010.49 1010.42 1010.41 1010.48 1010.66 1010.92 1011.25 1011.61 1011.94 1012.24 1012.48 1012.68 1012.85 1013.01 1013.19 1013.39 1013.63 1013.89 1014.15 1014.39 1014.58 1014.73 1014.83 1014.92 1015.00 1015.10
1008.56 1009.39 1009.98 1010.29 1010.36 1010.25 1010.07 1009.89 1009.80 1009.82 1009.95 1010.14 1010.36 1010.53 1010.62 1010.61 1010.51 1010.36 1010.21 1010.12 1010.11 1010.20 1010.40 1010.67 1010.98 1011.28 1011.56 1011.79 1011.98 1012.15 1012.33 1012.54 1012.80 1013.10 1013.44 1013.77 1014.09 1014.36 1014.58 1014.74 1014.86 1014.96 1015.07
1009.57 1010.44 1011.02 1011.30 1011.29 1011.09 1010.79 1010.49 1010.28 1010.19 1010.23 1010.35 1010.50 1010.63 1010.68 1010.62 1010.48 1010.28 1010.07 1009.91 1009.83 1009.85 1009.98 1010.18 1010.42 1010.67 1010.89 1011.09 1011.26 1011.44 1011.63 1011.87 1012.18 1012.54 1012.95 1013.36 1013.76 1014.10 1014.38 1014.59 1014.74 1014.86 1014.98
1010.56 1011.43 1011.99 1012.23 1012.16 1011.88 1011.49 1011.10 1010.79 1010.61 1010.56 1010.60 1010.69 1010.77 1010.77 1010.69 1010.51 1010.28 1010.04 1009.83 1009.70 1009.66 1009.71 1009.83 1010.00 1010.17 1010.33 1010.47 1010.61 1010.76 1010.95 1011.22 1011.57 1011.98 1012.45 1012.93 1013.39 1013.80 1014.13 1014.37 1014.55 1014.68 1014.80
1011.46 1012.29 1012.81 1013.00 1012.89 1012.56 1012.12 1011.67 1011.30 1011.05 1010.93 1010.91 1010.94 1010.96 1010.93 1010.81 1010.62 1010.38 1010.13 1009.90 1009.74 1009.65 1009.64 1009.69 1009.76 1009.84 1009.91 1009.98 1010.05 1010.17 1010.35 1010.62 1010.99 1011.44 1011.95 1012.49 1013.00 1013.45 1013.81 1014.09 1014.28 1014.42 1014.53
1012.21 1012.96 1013.41 1013.55 1013.42 1013.08 1012.63 1012.18 1011.79 1011.51 1011.34 1011.27 1011.24 1011.21 1011.14 1011.00 1010.81 1010.57 1010.33 1010.11 1009.94 1009.83 1009.77 1009.74 1009.73 1009.71 1009.69 1009.66 1009.66 1009.71 1009.85 1010.11 1010.48 1010.95 1011.49 1012.05 1012.60 1013.08 1013.47 1013.76 1013.96 1014.09 1014.19
1012.80 1013.43 1013.79 1013.89 1013.74 1013.43 1013.01 1012.59 1012.22 1011.95 1011.76 1011.66 1011.58 1011.51 1011.40 1011.25 1011.05 1010.83 1010.62 1010.42 1010.27 1010.15 1010.06 1009.98 1009.89 1009.78 1009.66 1009.54 1009.45 1009.43 1009.52 1009.74 1010.09 1010.56 1011.11 1011.69 1012.25 1012.75 1013.15 1013.44 1013.64 1013.76 1013.85
1013.23 1013.72 1013.99 1014.04 1013.90 1013.62 1013.27 1012.92 1012.61 1012.37 1012.19 1012.07 1011.96 1011.85 1011.71 1011.53 1011.34 1011.14 1010.96 1010.81 1010.68 1010.59 1010.49 1010.38 1010.23 1010.05 1009.84 1009.62 1009.45 1009.36 1009.39 1009.57 1009.89 1010.34 1010.88 1011.45 1012.01 1012.51 1012.91 1013.20 1013.39 1013.51 1013.58
1013.56 1013.90 1014.07 1014.07 1013.93 1013.70 1013.44 1013.18 1012.96 1012.77 1012.63 1012.50 1012.36 1012.21 1012.04 1011.85 1011.66 1011.48 1011.33 1011.23 1011.15 1011.09 1011.01 1010.89 1010.72 1010.49 1010.22 1009.94 1009.70 1009.54 1009.52 1009.65 1009.93 1010.35 1010.86 1011.42 1011.96 1012.45 1012.83 1013.11 1013.30 1013.40 1013.46
1013.83 1014.03 1014.10 1014.05 1013.92 1013.75 1013.58 1013.42 1013.28 1013.17 1013.06 1012.94 1012.79 1012.61 1012.40 1012.18 1011.99 1011.83 1011.72 1011.66 1011.64 1011.62 1011.58 1011.48 1011.31 1011.07 1010.77 1010.46 1010.17 1009.98 1009.91 1009.99 1010.24 1010.62 1011.10 1011.62 1012.13 1012.59 1012.95 1013.22 1013.39 1013.48 1013.53
1014.10 1014.17 1014.14 1014.05 1013.93 1013.82 1013.73 1013.66 1013.62 1013.58 1013.51 1013.39 1013.23 1013.02 1012.78 1012.54 1012.33 1012.18 1012.10 1012.09 1012.12 1012.16 1012.17 1012.12 1011.98 1011.75 1011.46 1011.14 1010.85 1010.63 1010.54 1010.59 1010.80 1011.14 1011.57 1012.05 1012.52 1012.94 1013.27 1013.51 1013.66 1013.74 1013.77
1014.37 1014.34 1014.24 1014.12 1014.01 1013.94 1013.93 1013.95 1013.98 1014.00 1013.96 1013.86 1013.68 1013.44 1013.17 1012.91 1012.69 1012.55 1012.49 1012.51 1012.59 1012.68 1012.75 1012.75 1012.66 1012.48 1012.22 1011.93 1011.65 1011.44 1011.34 1011.38 1011.55 1011.85 1012.23 1012.66 1013.08 1013.45 1013.74 1013.94 1014.07 1014.12 1014.14
1014.64 1014.55 1014.41 1014.27 1014.18 1014.15 1014.19 1014.27 1014.36 1014.42 1014.41 1014.32 1014.13 1013.87 1013.58 1013.30 1013.07 1012.92 1012.87 1012.92 1013.03 1013.16 1013.28 1013.33 1013.30 1013.17 1012.97 1012.73 1012.49 1012.31 1012.22 1012.25 1012.40 1012.66 1012.99 1013.36 1013.71 1014.03 1014.27 1014.43 1014.53 1014.56 1014.56
1014.88 1014.78 1014.62 1014.49 1014.42 1014.42 1014.50 1014.63 1014.75 1014.84 1014.85 1014.75 1014.56 1014.29 1013.98 1013.68 1013.44 1013.29 1013.24 1013.29 1013.41 1013.57 1013.72 1013.81 1013.83 1013.77 1013.63 1013.45 1013.27 1013.12 1013.06 1013.09 1013.23 1013.45 1013.73 1014.04 1014.33 1014.59 1014.78 1014.90 1014.96 1014.97 1014.95
1015.08 1014.99 1014.86 1014.75 1014.70 1014.73 1014.84 1014.98 1015.13 1015.23 1015.24 1015.14 1014.95 1014.67 1014.36 1014.05 1013.80 1013.63 1013.57 1013.61 1013.73 1013.89 1014.05 1014.17 1014.23 1014.21 1014.13 1014.02 1013.90 1013.80 1013.77 1013.82 1013.95 1014.14 1014.37 1014.62 1014.85 1015.05 1015.18 1015.26 1015.29 1015.28 1015.25
1015.20 1015.15 1015.06 1015.00 1014.98 1015.04 1015.16 1015.32 1015.46 1015.56 1015.57 1015.48 1015.28 1015.01 1014.70 1014.40 1014.14 1013.96 1013.88 1013.90 1013.99 1014.13 1014.27 1014.39 1014.47 1014.49 1014.46 1014.40 1014.34 1014.30 1014.31 1014.37 1014.49 1014.66 1014.86 1015.05 1015.23 1015.36 1015.45 1015.49 1015.49 1015.46 1015.41
1015.23 1015.25 1015.22 1015.21 1015.23 1015.32 1015.45 1015.60 1015.74 1015.82 1015.83 1015.74 1015.56 1015.31 1015.01 1014.72 1014.46 1014.28 1014.18 1014.16 1014.21 1014.31 1014.42 1014.52 1014.60 1014.64 1014.64 1014.63 1014.62 1014.63 1014.67 1014.76 1014.88 1015.03 1015.19 1015.33 1015.46 1015.54 1015.59 1015.59 1015.56 1015.52 1015.47
1015.18 1015.27 1015.32 1015.36 1015.43 1015.53 1015.67 1015.82 1015.94 1016.02 1016.03 1015.95 1015.79 1015.57 1015.30 1015.03 1014.79 1014.60 1014.48 1014.43 1014.43 1014.48 1014.55 1014.62 1014.69 1014.73 1014.76 1014.78 1014.81 1014.86 1014.93 1015.03 1015.15 1015.28 1015.40 1015.51 1015.59 1015.63 1015.63 1015.60 1015.56 1015.50 1015.44
1015.08 1015.24 1015.36 1015.46 1015.57 1015.69 1015.83 1015.97 1016.09 1016.17 1016.18 1016.12 1015.99 1015.81 1015.59 1015.36 1015.14 1014.96 1014.82 1014.74 1014.71 1014.71 1014.73 1014.77 1014.81 1014.85 1014.89 1014.94 1015.00 1015.07 1015.16 1015.27 1015.38 1015.48 1015.57 1015.63 1015.66 1015.66 1015.62 1015.57 1015.50 1015.43 1015.37
1014.97 1015.19 1015.36 1015.51 1015.65 1015.80 1015.94 1016.08 1016.20 1016.27 1016.30 1016.27 1016.18 1016.05 1015.88 1015.70 1015.52 1015.35 1015.22 1015.12 1015.05 1015.02 1015.00 1015.01 1015.03 1015.06 1015.11 1015.17 1015.25 1015.33 1015.43 1015.53 1015.62 1015.69 1015.73 1015.74 1015.72 1015.67 1015.60 1015.51 1015.43 1015.35 1015.27
1014.87 1015.13 1015.34 1015.53 1015.70 1015.86 1016.01 1016.15 1016.27 1016.36 1016.40 1016.40 1016.36 1016.28 1016.17 1016.05 1015.91 1015.78 1015.66 1015.55 1015.47 1015.41 1015.37 1015.35 1015.36 1015.39 1015.43 1015.50 1015.58 1015.67 1015.76 1015.83 1015.89 1015.91 1015.90 1015.85 1015.77 1015.67 1015.56 1015.44 1015.33 1015.24 1015.16
1014.80 1015.08 1015.33 1015.54 1015.73 1015.90 1016.06 1016.20 1016.32 1016.41 1016.48 1016.51 1016.52 1016.49 1016.44 1016.37 1016.28 1016.19 1016.09 1016.00 1015.91 1015.84 1015.79 1015.77 1015.76 1015.79 1015.84 1015.91 1015.98 1016.06 1016.12 1016.15 1016.15 1016.12 1016.04 1015.92 1015.79 1015.63 1015.47 1015.33 1015.20 1015.09 1015.00
1014.77 1015.06 1015.32 1015.55 1015.75 1015.93 1016.09 1016.23 1016.34 1016.44 1016.52 1016.58 1016.62 1016.64 1016.63 1016.61 1016.57 1016.51 1016.44 1016.36 1016.29 1016.23 1016.18 1016.16 1016.16 1016.19 1016.23 1016.29 1016.36 1016.41 1016.43 1016.41 1016.36 1016.25 1016.10 1015.92 1015.72 1015.51 1015.31 1015.13 1014.98 1014.86 1014.77
1014.77 1015.07 1015.33 1015.57 1015.77 1015.95 1016.10 1016.23 1016.33 1016.42 1016.50 1016.57 1016.62 1016.66 1016.69 1016.70 1016.69 1016.66 1016.62 1016.57 1016.51 1016.47 1016.43 1016.42 1016.43 1016.46 1016.51 1016.56 1016.60 1016.62 1016.60 1016.53 1016.41 1016.24 1016.02 1015.78 1015.52 1015.27 1015.04 1014.84 1014.68 1014.56 1014.46
Thickness
5760 5760 5758 5754 5750 5745 5740 5736 5731 5727 5722 5717 5712 5708 5704 5702 5699 5696 5692 5689 5686 5685 5683 5680 5679 5677 5675 5673 5671 5670 5669 5669 5670 5668 5667 5670 5672 5671 5670 5669 5668 5668 5668
5755 5753 5751 5748 5744 5739 5735 5731 5726 5723 5718 5713 5709 5705 5701 5697 5695 5691 5687 5684 5682 5679 5678 5675 5673 5671 5669 5667 5665 5664 5661 5662 5662 5658 5656 5655 5658 5660 5662 5661 5660 5660 5660
5751 5747 5745 5742 5739 5734 5730 5727 5722 5718 5714 5709 5705 5700 5696 5692 5688 5685 5682 5679 5677 5674 5672 5669 5667 5665 5663 5660 5658 5656 5654 5652 5653 5653 5648 5644 5643 5645 5650 5651 5652 5652 5651
5751 5745 5741 5738 5734 5731 5727 5722 5718 5713 5709 5705 5700 5694 5689 5685 5682 5680 5677 5674 5672 5669 5666 5663 5660 5658 5656 5653 5652 5650 5647 5645 5644 5644 5644 5642 5640 5635 5635 5640 5643 5644 5643
5750 5744 5739 5735 5731 5728 5723 5717 5713 5708 5704 5699 5695 5690 5686 5681 5678 5675 5672 5668 5666 5663 5661 5657 5654 5651 5649 5647 5645 5643 5640 5638 5636 5635 5635 5635 5634 5632 5628 5628 5632 5634 5635
5745 5740 5736 5732 5727 5724 5719 5713 5708 5703 5699 5694 5690 5685 5681 5677 5672 5668 5665 5662 5660 5657 5655 5652 5649 5646 5643 5641 5639 5637 5635 5632 5631 5629 5628 5626 5624 5623 5622 5621 5622 5623 5626
5739 5733 5728 5724 5721 5716 5712 5708 5702 5697 5693 5688 5684 5681 5677 5673 5668 5664 5661 5658 5655 5652 5649 5646 5643 5640 5638 5636 5634 5631 5629 5627 5625 5623 5622 5621 5620 5619 5617 5615 5614 5615 5618
5732 5727 5723 5719 5716 5711 5705 5700 5695 5690 5687 5683 5679 5676 5672 5669 5665 5661 5658 5654 5651 5648 5644 5641 5638 5636 5633 5631 5629 5626 5624 5622 5620 5619 5617 5615 5615 5614 5612 5610 5608 5606 5609
5727 5722 5716 5714 5710 5705 5700 5695 5689 5684 5681 5678 5674 5670 5667 5664 5660 5657 5654 5650 5646 5643 5639 5636 5633 5630 5628 5626 5623 5621 5618 5617 5615 5613 5612 5610 5610 5609 5609 5607 5605 5601 5599
5721 5716 5712 5707 5704 5700 5695 5690 5685 5680 5676 5673 5670 5667 5663 5659 5655 5652 5648 5645 5641 5638 5635 5631 5629 5626 5624 5621 5619 5616 5614 5612 5610 5608 5607 5605 5604 5604 5604 5603 5602 5601 5598
5713 5710 5706 5702 5698 5694 5689 5684 5680 5675 5671 5668 5665 5661 5658 5655 5651 5648 5645 5642 5638 5634 5631 5628 5625 5623 5620 5617 5614 5612 5610 5607 5605 5603 5602 5600 5600 5598 5598 5598 5597 5597 5596
5707 5703 5699 5694 5690 5685 5681 5677 5674 5670 5666 5663 5660 5656 5653 5650 5647 5644 5641 5638 5634 5631 5628 5625 5622 5619 5617 5614 5611 5608 5606 5603 5601 5599 5597 5596 5596 5594 5594 5593 5592 5592 5592
5701 5697 5691 5686 5681 5678 5674 5671 5667 5664 5662 5659 5655 5652 5649 5646 5642 5639 5637 5634 5631 5628 5625 5622 5619 5616 5613 5611 5608 5605 5602 5600 5598 5595 5594 5592 5592 5590 5589 5588 5588 5589 5589
5696 5691 5685 5680 5676 5672 5668 5665 5662 5660 5657 5655 5651 5648 5645 5642 5639 5637 5634 5631 5628 5625 5622 5619 5616 5613 5610 5607 5604 5601 5599 5597 5595 5593 5591 5590 5588 5587 5586 5586 5586 5586 5585
5691 5685 5679 5675 5670 5667 5663 5660 5657 5655 5653 5650 5647 5644 5642 5640 5637 5634 5631 5628 5625 5623 5619 5616 5614 5611 5607 5604 5600 5598 5597 5595 5593 5591 5589 5588 5587 5585 5585 5585 5584 5584 5583
5686 5681 5676 5671 5666 5663 5659 5655 5652 5650 5648 5645 5643 5641 5639 5636 5633 5631 5628 5625 5623 5620 5617 5614 5611 5608 5605 5600 5597 5595 5594 5592 5591 5589 5588 5587 5586 5585 5585 5584 5583 5582 5581
5683 5678 5673 5668 5663 5660 5656 5652 5649 5646 5644 5641 5639 5637 5636 5633 5631 5629 5626 5622 5620 5617 5614 5611 5608 5605 5601 5598 5596 5594 5592 5591 5590 5589 5587 5587 5587 5585 5584 5584 5584 5583 5581
5679 5674 5670 5665 5660 5656 5653 5649 5646 5643 5640 5638 5636 5635 5633 5631 5629 5626 5623 5620 5617 5614 5611 5609 5607 5604 5601 5597 5595 5593 5592 5591 5590 5589 5587 5586 5584 5583 5582 5583 5584 5583 5583
5675 5670 5666 5661 5657 5652 5649 5646 5643 5640 5638 5636 5634 5633 5631 5629 5627 5623 5620 5618 5615 5612 5610 5608 5606 5604 5600 5597 5595 5592 5592 5591 5590 5589 5588 5586 5584 5582 5581 5581 5581 5582 5582
5671 5666 5661 5657 5652 5649 5646 5642 5639 5637 5635 5634 5633 5632 5630 5628 5625 5622 5619 5617 5614 5611 5610 5608 5606 5604 5601 5598 5595 5592 5591 5590 5590 5589 5588 5585 5584 5582 5580 5579 5579 5579 5580
5667 5663 5657 5653 5649 5647 5643 5639 5637 5635 5635 5634 5632 5630 5628 5626 5624 5621 5619 5616 5614 5612 5610 5608 5606 5605 5602 5599 5596 5593 5590 5589 5589 5589 5587 5585 5583 5582 5580 5578 5578 5578 5577
5664 5659 5655 5651 5648 5644 5640 5637 5635 5635 5634 5632 5630 5627 5626 5626 5624 5620 5618 5617 5614 5612 5610 5608 5607 5606 5604 5601 5598 5594 5591 5588 5588 5588 5587 5585 5583 5581 5580 5579 5579 5578 5577
5661 5657 5653 5649 5645 5643 5640 5636 5635 5634 5632 5630 5628 5626 5626 5624 5622 5620 5618 5616 5615 5613 5611 5610 5609 5607 5605 5602 5598 5595 5592 5590 5587 5588 5587 5585 5583 5582 5582 5582 5580 5579 5578
5658 5655 5651 5647 5643 5642 5640 5637 5635 5633 5631 5628 5626 5625 5624 5623 5622 5620 5619 5617 5615 5613 5612 5611 5609 5607 5605 5602 5598 5596 5593 5590 5588 5587 5586 5586 5585 5585 5584 5583 5583 5582 5582
5656 5653 5650 5646 5643 5641 5639 5637 5634 5632 5629 5627 5626 5625 5625 5624 5622 5620 5618 5617 5615 5613 5610 5609 5607 5604 5602 5600 5596 5592 5592 5590 5587 5583 5585 5586 5587 5588 5587 5586 5586 5586 5584
5654 5651 5648 5646 5643 5641 5638 5636 5634 5632 5629 5627 5626 5626 5625 5624 5623 5621 5618 5616 5615 5613 5611 5608 5606 5605 5602 5599 5597 5594 5590 5587 5584 5582 5585 5586 5587 5588 5588 5587 5586 5586 5585